Hourly Data Report for January 13, 2022

RANKIN INLET A
NUNAVUT
Current Station Operator: NAVCAN

62°48'38.000" N
92°06'53.000" W
32.30 m
2303405
71083
YRT

Download Data

Hourly Data (January 2022)
Hourly Data Report for January 13, 2022
TIME
LST
Temp Definition
°C
Dew Point Definition
°C
Rel Hum Definition
%
Precip. Amount Definition
mm

Wind Dir Definition
10's deg

Wind Spd Definition
km/h
Visibility Definition
km
Stn Press Definition
kPa
Hmdx Definition


Wind Chill Definition


Weather Definition


00:00 -34.1 -38.7 64   34 26 24.1 101.57   -50 Ice Crystals,Blowing Snow
01:00 -34.3 -39.0 64   36 26 24.1 101.65   -50 Ice Crystals,Blowing Snow
02:00 -34.7 -39.5 63   33 24 24.1 101.81   -50 Ice Crystals,Blowing Snow
03:00 -34.9 -39.6 63   35 22 24.1 101.91   -50 Ice Crystals,Blowing Snow
04:00 -35.1 -39.9 63   34 22 24.1 101.99   -50 Ice Crystals
05:00 -35.0 -39.8 63   34 17 24.1 102.05   -48 Ice Crystals
06:00 -35.1 -39.8 63   33 22 24.1 102.14   -50 Ice Crystals
07:00 -35.0 -39.8 63   35 20 24.1 102.13   -49 Ice Crystals
08:00 -35.9 -40.7 63   31 16 24.1 102.18   -49 Ice Crystals
09:00 -35.5 -40.2 63   35 17 24.1 102.22   -49 Ice Crystals
10:00 -35.5 -40.4 63   33 21 24.1 102.23   -50 Ice Crystals
11:00 -35.7 -40.4 63   31 16 24.1 102.23   -49 Ice Crystals
12:00 -35.2 -40.1 62   34 9 24.1 102.22   -45 Ice Crystals
13:00 -35.3 -40.1 63   29 16 24.1 102.23   -48 Ice Crystals
14:00 -34.9 -39.7 63   29 16 24.1 102.26   -48 Ice Crystals
15:00 -35.3 -40.2 62   28 9 24.1 102.23   -45 Ice Crystals
16:00 -35.2 -39.9 63   27 4 24.1 102.23   -40 Ice Crystals
17:00 -34.9 -39.6 64   26 12 24.1 102.23   -46 Ice Crystals
18:00 -34.6 -39.2 64   23 12 24.1 102.22   -46 Ice Crystals
19:00 -34.5 -39.2 63   24 12 24.1 102.14   -46 Ice Crystals
20:00 -34.7 -39.3 64   23 14 24.1 102.10   -47 Ice Crystals
21:00 -34.5 -39.1 64   22 5 24.1 102.05   -41 Ice Crystals
22:00 -34.4 -38.9 65   22 11 24.1 102.00   -45 Ice Crystals
23:00 -34.0 -38.4 65   22 15 24.1 101.97   -46 Ice Crystals

Notes on Data Quality.

Legend

  • E = Estimated
  • M = Missing
  • NA = Not Available*
  • [empty] = Indicates an unobserved value
Date modified: